This is the latest recevied weather packets stored in our database for station/object KB3KBR-WX. If no packets are shown the sender has not sent any weather packets the latest 1 day(s).
| Time | Temp. | Humidity | Pressure | Rain* | Wind** | Luminosity | Snow |
|---|---|---|---|---|---|---|---|
| 1778038890 | 11.11° C | 93% | 1005.1 hPa | 0.76 mm | 0 m/s | - | - |
| 1778038560 | 11.11° C | 93% | 1005.2 hPa | 0.76 mm | 0 m/s | - | - |
| 1778038260 | 11.11° C | 93% | 1005.3 hPa | 1.02 mm | 0 m/s | - | - |
| 1778037930 | 11.11° C | 93% | 1005.3 hPa | 1.02 mm | 0 m/s | - | - |
| 1778037630 | 11.11° C | 93% | 1005.3 hPa | 2.03 mm | 0 m/s | - | - |
| 1778037330 | 11.11° C | 93% | 1005.5 hPa | 2.29 mm | 0 m/s | - | - |
| 1778037000 | 10.56° C | 93% | 1005.6 hPa | 2.79 mm | 0 m/s | - | - |
| 1778036700 | 10.56° C | 93% | 1005.3 hPa | 2.79 mm | 0 m/s | - | - |
| 1778036370 | 10.56° C | 93% | 1005.2 hPa | 3.05 mm | 0 m/s | - | - |
| 1778036040 | 10.56° C | 93% | 1005.2 hPa | 3.56 mm | 0 m/s | - | - |
| 1778035740 | 10.56° C | 93% | 1005.1 hPa | 5.33 mm | 0.45 m/s, 340° | - | - |
| 1778035410 | 10.56° C | 93% | 1005.2 hPa | 5.59 mm | 0 m/s | - | - |
| 1778035109 | 10.56° C | 92% | 1005.3 hPa | 5.59 mm | 0 m/s | - | - |
| 1778034780 | 10.56° C | 92% | 1005.8 hPa | 5.59 mm | 0 m/s | - | - |
| 1778034480 | 10.56° C | 92% | 1005.9 hPa | 5.33 mm | 0 m/s | - | - |
| 1778034150 | 10.56° C | 92% | 1005.9 hPa | 4.83 mm | 0 m/s | - | - |
| 1778033820 | 10.56° C | 92% | 1005.8 hPa | 4.06 mm | 0.45 m/s, 357° | - | - |
| 1778033520 | 11.11° C | 92% | 1006.3 hPa | 3.56 mm | 0.45 m/s, 345° | - | - |
| 1778033219 | 11.11° C | 91% | 1006 hPa | 3.05 mm | 0.89 m/s, 338° | - | - |
| 1778032889 | 11.11° C | 91% | 1006 hPa | 2.79 mm | 1.34 m/s, 348° | - | - |
| 1778032560 | 11.11° C | 90% | 1005.9 hPa | 2.54 mm | 1.79 m/s, 346° | - | - |
| 1778032259 | 12.22° C | 90% | 1006.7 hPa | 1.02 mm | 2.24 m/s, 334° | - | - |
| 1778031930 | 12.78° C | 90% | 1005.5 hPa | 0.51 mm | 2.24 m/s, 339° | - | - |
| 1778031630 | 13.33° C | 92% | 1005.6 hPa | 0 mm | 1.34 m/s, 340° | - | - |
| 1778031299 | 13.33° C | 92% | 1005.4 hPa | 0 mm | 0.89 m/s, 335° | - | - |
* Rain latest hour (hover to see other rain measurements)
** Current wind speed in m/s (hover to see current wind gust speed)